sat.trackr.live / text

‹ back to catalog

UNKNOWN

NORAD 85439

UNKNOWN UNKNOWN UNKNOWN

§ Identity

Operator
Country
Launch date
Launch site
Launch vehicle
Mass (kg)
RCS (m²)

External: N2YO · Heavens-Above

§ Orbital elements

Epoch: 2026-05-28T09:19:34.640832Z

Period
92.84 min
Inclination
51.6241°
Eccentricity
0.0004517
Mean motion
15.50981545 rev/d
Perigee alt
410.8 km
Apogee alt
416.9 km
Semi-major
6,792.0 km
B*
2.4405e-3
RAAN
38.1183°
Arg perigee
51.5186°
Mean anomaly
308.6207°
Rev number
24

§ Raw data

UNKNOWN1 85439U          26148.38859538  .00146508  00000+0  24405-2 0  99992 85439  51.6241  38.1183 0004517  51.5186 308.6207 15.50981545   242

JSON: /api/v1/satellites/85439 · /tle

For live sub-satellite position, see the globe view (requires WebGL).

§ Visibility from observer

Set your observer location to see the next 7 days of passes ≥ 10°. The values pass through the URL so the page stays shareable.

No JS? Fill the form by hand. The geolocation button needs JavaScript.